Current Version              Previous Version:    01  02  03  04  05  06  07  08  09  10  11  12  13  14  15  16  17  18  19  20  21  22  23  24  25  26  27  28  29  30  
   31  32  33  34  35  36  37  38  39  40  41  42  43  44  45  46  47  48  49  50  51  52  53  54  55  56  57  58  59  60  

[Printable]
094
ASUS44 KFWD 230801
RWRTX
NORTH TEXAS HOURLY WEATHER ROUNDUP
NATIONAL WEATHER SERVICE FORT WORTH TX
300 AM CDT WED JUL 23 2014

NOTE: "FAIR" INDICATES FEW OR NO CLOUDS BELOW 12,000 FEET WITH NO
SIGNIFICANT WEATHER AND/OR OBSTRUCTIONS TO VISIBILITY.

TXZ118-119-230900-
DALLAS/FORT WORTH METROPLEX

CITY           SKY/WX    TMP DP  RH WIND       PRES   REMARKS
DFW AIRPORT    CLEAR     78  69  73 E5        30.07S
DALLAS LOVE    CLEAR     81  68  64 E6        30.07S
FTW MEACHAM    CLEAR     80  70  71 SE5       30.07S
DAL-EXECUTIVE  CLEAR     76  69  79 SE5       30.07S
FTW-ALLIANCE   CLEAR     76  70  82 CALM      30.07S
FTW-NAS-JRB    CLEAR     83  68  60 SE7       30.11S
FTW-SPINKS     CLEAR     75  69  82 CALM      30.09F HAZE
ARLINGTON      CLEAR     77  69  76 SE3       30.07S
GRAND PRAIRIE  CLEAR     79  68  69 SE3       30.08F
ADDISON        CLEAR     81  67  61 SE5       30.10S
MESQUITE       CLEAR     73  69  87 CALM      30.08S
LANCASTER      CLEAR     70  66  88 CALM      30.08S
$$

TXZ091>094-102>105-117-120-121-131>134-230900-
NORTH CENTRAL TEXAS

CITY           SKY/WX    TMP DP  RH WIND       PRES   REMARKS
SHRMAN/DENISON CLEAR     79  69  72 SE8       30.10S
GAINESVILLE    CLEAR     75  71  86 CALM      30.11S
BOWIE          CLEAR     74  72  93 CALM      30.11R FOG
BRIDGEPORT     CLEAR     73  72  99 CALM      30.10S FOG
DECATUR        CLEAR     76  69  79 CALM      30.10R
DENTON         CLEAR     77  72  84 CALM      30.08R
MCKINNEY       CLEAR     72  71  97 CALM      30.08S FOG
GREENVILLE     CLEAR     72  68  88 CALM      30.09S
ROCKWALL       CLEAR     74  71  92 CALM      30.08S
TERRELL        CLEAR     75  70  84 N3        30.08R
WAXAHACHIE     CLEAR     74  68  80 CALM      30.09S
CLEBURNE       CLEAR     79  73  83 SE7       30.10S
GRANBURY       CLEAR     79  70  74 CALM      30.09S
$$

TXZ083>090-098>101-113>116-127>130-139>142-154-155-230900-
WESTERN NORTH TEXAS

CITY           SKY/WX    TMP DP  RH WIND       PRES   REMARKS
WICHITA FALLS  CLEAR     75  71  87 CALM      30.09S
WF-KICKAPOO    CLEAR     78  72  81 CALM      30.10S
VERNON         CLEAR     79  69  70 CALM      30.11F
ABILENE        PTCLDY    78  67  68 SE5       30.12F
ABILENE-DYESS  CLEAR     78  67  69 S2        30.11F
BRECKENRIDGE   CLEAR     79  67  67 SE5       30.10S
MINERAL WELLS  CLEAR     76  70  82 SE5       30.07F
STEPHENVILLE   CLEAR     77  70  78 CALM      30.13S
COMANCHE       CLEAR     75  70  85 E5        30.10S
BROWNWOOD      CLOUDY    73  70  88 CALM      30.10S
COLEMAN        CLEAR     76  69  79 CALM      30.11S
BRADY          CLEAR     79  66  65 CALM      30.10F
$$

TXZ143>147-156>162-174-175-230900-
CENTRAL TEXAS

CITY           SKY/WX    TMP DP  RH WIND       PRES   REMARKS
WACO           CLEAR     78  73  84 E5        30.06S
WACO-MCGREGOR  CLEAR     79  72  78 E6        30.08S
CORSICANA      CLEAR     77  71  82 CALM      30.07F
MEXIA          CLEAR    N/A N/A N/A CALM      30.06S
HEARNE         CLEAR     83  78  85 CALM      30.04S HX  92
CAMERON        PTCLDY    79  75  89 E3        30.04F
TEMPLE         CLEAR     79  70  73 E7        30.06S
KILLEEN        NOT AVBL
KILLEEN-SKYLRK CLEAR     79  70  73 E6        30.06S
FORT HOOD      CLEAR     81  73  76 E5        30.07R
GATESVILLE     CLEAR     79  73  83 CALM      30.10R
HAMILTON       CLEAR     77  71  81 E3        30.11R
LAMPASAS       CLEAR     76  72  89 CALM      30.08R
$$

TXZ095>097-106>112-122>126-135>138-148>153-164>167-230900-
EAST TEXAS

CITY           SKY/WX    TMP DP  RH WIND       PRES   REMARKS
PARIS          CLEAR     73  66  78 CALM      30.09F
SULPHUR SPRNGS CLEAR     73  71  91 CALM      30.10S
CLARKSVILLE    CLEAR     73  71  96 CALM      30.08S
MOUNT PLEASANT CLEAR     70  69  96 CALM      30.09S
GILMER         CLEAR     72  72 100 CALM      30.08S
MINEOLA        CLEAR     70  70 100 CALM      30.08S
TYLER          CLEAR     72  69  90 CALM      30.07R
LONGVIEW       CLEAR     71  68  90 CALM      30.05F
MARSHALL       CLEAR     73  71  92 CALM      30.08S
ATHENS         CLEAR     70  70 100 CALM      30.06S
JACKSONVILLE   CLEAR     76  68  78 CALM      30.08S
HENDERSON      CLEAR     70  69  98 CALM      30.07S FOG
NACOGDOCHES    CLEAR     70  66  88 NW3       30.05F
LUFKIN         CLEAR     74  70  87 CALM      30.04S
$$

SUPPLEMENTAL OBSERVATIONS (CENTRAL)

CITY           SKY/WX    TMP DP  RH WIND       PRES   REMARKS
$$

SUPPLEMENTAL OBSERVATIONS (WEST)

CITY           SKY/WX    TMP DP  RH WIND       PRES   REMARKS
$$

SUPPLEMENTAL OBSERVATIONS (EAST)

CITY           SKY/WX    TMP DP  RH WIND       PRES   REMARKS
$$

SUPPLEMENTAL OBSERVATIONS ARE A COLLECTION OF AUTOMATED INSTRUMENTS
THAT ARE MAINTAINED BY A VARIETY OF FEDERAL AND STATE AGENCIES.
CERTAIN ELEMENTS...SUCH AS HUMIDITY VALUES AND SUSTAINED WIND
SPEEDS...MAY BE APPROXIMATED.